CAPE
0 0 0 0 0 0 0 0 0 0 0 0 0 2 0 0 0 0 0 0 0 0 0 0 0 0 0 0 0 4 2 0 0 0 0 0 12 192 502 416 549 716 608 1598 1044 813 828 978 1173 911 527 608 874 896 941 705 933 1271 1384 1438 1251 1281 1213 1082 1122 1161 1005 832 921 930 808 998 897 715 811 981 720 491 746 543 544 762 977 1187 1103 999
0 0 0 0 0 0 0 0 0 0 0 0 0 0 2 0 0 0 0 1 1 0 0 0 0 0 0 0 0 7 0 0 0 0 0 0 0 189 763 616 666 844 675 538 238 472 880 822 1052 922 726 744 830 804 738 727 895 1090 1266 1392 1456 1578 1300 1026 1204 1611 1394 1406 1044 939 775 684 548 584 571 357 346 342 385 634 774 807 584 816 883 954
0 0 0 0 0 0 0 0 0 0 0 0 0 0 0 1 0 0 2 17 11 0 0 0 0 0 0 0 0 0 17 0 0 0 0 0 11 224 459 354 399 617 487 57 534 239 979 1112 1088 901 668 836 913 858 739 752 761 785 800 922 1126 1352 1572 1502 1372 1457 1361 1152 1213 1592 980 568 558 602 490 142 281 430 423 778 508 612 693 523 428 649
0 0 0 0 0 0 0 0 0 0 0 0 0 0 0 0 0 0 52 0 4 0 0 0 0 0 0 0 0 0 10 10 0 0 0 0 155 366 291 222 359 587 360 534 498 316 1122 1116 1132 1011 620 724 750 850 863 692 744 662 660 802 1034 1272 1206 1221 1246 1054 1004 940 746 1598 1349 1419 885 301 312 304 213 179 280 441 424 532 677 401 131 12
2 14 0 0 0 0 0 0 0 0 0 0 0 0 0 0 0 0 22 6 2 0 0 0 0 0 0 0 0 13 8 7 16 16 0 10 382 586 374 283 716 151 278 403 891 684 971 1180 1104 879 666 625 805 909 966 796 724 696 686 992 1238 1200 1054 1030 888 1026 1085 1273 1632 1370 973 739 593 413 133 16 181 246 66 217 435 374 305 8 0 3
15 52 10 0 0 0 0 0 0 0 0 0 0 0 0 0 0 2 67 3 0 0 0 0 0 0 0 0 0 0 4 59 84 76 10 0 370 170 303 282 365 279 485 546 561 807 1250 1086 1079 858 710 754 813 773 774 731 676 738 756 972 1169 1120 1068 1058 989 1019 891 1447 1639 1285 975 779 648 494 535 351 21 106 313 80 418 191 168 98 309 27
1 20 0 0 0 5 0 0 0 0 0 0 0 0 0 0 0 0 34 1 1 0 17 2 0 0 0 0 0 0 90 63 129 108 76 28 22 162 150 498 512 489 600 607 867 866 1037 1059 959 843 738 711 742 850 793 711 824 880 960 1166 1235 1171 1097 1146 1102 1041 1182 1554 1475 1364 928 703 616 660 657 406 710 300 295 763 428 222 290 114 252 87
0 0 0 0 1 0 0 0 0 0 0 0 0 0 0 0 0 0 0 0 0 37 17 15 0 0 0 0 0 0 211 117 97 225 302 54 93 210 212 551 442 344 708 1015 866 748 989 1065 950 921 750 727 810 941 1002 1023 951 959 1091 1290 1394 1418 1305 1218 1173 1140 1554 1549 1419 1302 938 778 1127 935 556 645 522 636 446 402 379 409 236 23 68 62
1 1 0 8 0 0 0 0 0 0 0 0 0 0 0 0 0 0 0 0 17 8 0 0 29 0 0 0 0 0 76 64 118 235 328 166 149 424 636 406 313 147 633 729 892 1029 912 1057 1009 1007 944 776 891 1048 1397 1320 1219 1197 1329 1647 1609 1390 1166 1128 966 1256 1432 1489 1374 1414 1145 1241 1082 492 491 185 177 321 305 304 479 425 122 171 5 0
0 0 0 0 0 0 0 0 0 0 0 0 0 0 0 0 0 0 2 2 16 0 0 9 72 14 0 0 0 0 46 65 54 98 219 166 536 776 127 349 147 538 834 935 899 1046 1075 1073 1215 1336 1225 991 1157 1174 1096 1234 1342 1423 1501 1421 1075 1209 1079 1090 1282 1147 954 626 533 892 1226 1216 628 410 204 181 373 357 602 340 91 164 176 12 96 8
6 1 0 0 0 0 0 0 0 0 0 0 0 0 0 0 0 0 0 0 2 0 0 0 14 34 14 23 16 2 8 118 19 5 186 272 361 416 606 450 552 576 1104 1168 1062 1092 1462 1112 1160 1566 1362 1385 1296 996 952 1044 1019 1049 1082 924 958 1115 1249 1015 751 834 864 530 447 421 684 987 524 451 438 361 349 461 335 141 165 169 171 43 2 7
0 0 0 0 0 0 0 0 0 0 0 0 25 5 31 18 0 0 0 0 0 0 0 0 33 28 19 0 26 134 55 57 601 825 122 14 824 640 962 853 876 852 1195 1375 1251 1119 1504 1243 1274 1396 1427 1408 1231 1139 1023 937 954 1079 1136 777 843 962 886 735 720 738 593 293 216 178 597 849 651 548 468 359 307 313 175 253 270 192 83 8 40 12
0 0 0 0 0 0 0 1 45 0 0 0 4 20 30 2 4 0 0 0 0 0 0 0 4 75 49 173 279 416 170 8 550 376 753 606 616 768 934 810 1051 906 1295 1477 1394 1279 1459 1225 1200 1281 1488 1525 1470 1195 1108 1016 1049 1310 1346 1035 972 898 810 850 677 600 254 258 254 252 764 921 925 559 432 436 326 245 290 283 80 42 7 1 0 0
0 0 0 0 0 0 0 0 13 5 0 0 0 9 60 0 0 0 0 0 0 0 0 46 92 16 91 199 291 215 504 617 74 451 614 508 422 726 741 1019 970 1208 1522 1530 1401 1302 1381 1191 1177 1383 1379 1497 1656 1482 1253 1228 1256 1479 1477 1398 1258 967 772 878 561 532 489 331 349 627 1010 834 748 762 626 429 363 356 312 218 111 59 0 20 1 0
0 0 0 0 0 0 0 0 7 12 0 0 0 1 84 36 30 0 0 11 2 6 24 0 36 12 32 324 197 361 580 762 441 31 328 298 398 839 987 929 977 1521 1708 1481 1281 1265 1432 1328 1164 1257 1446 1458 1568 1708 1525 1397 1470 1665 1584 1598 1472 1425 960 911 793 733 719 763 720 1208 940 884 798 605 667 495 468 449 241 56 131 71 64 0 0 4
0 0 0 0 0 0 0 0 0 0 0 0 0 0 0 63 46 3 246 164 60 0 0 76 24 175 505 81 264 423 334 458 455 438 555 430 510 1018 1368 1441 1509 1511 1474 1475 1338 1242 1032 1007 1049 1433 1595 1610 1618 1525 1652 1557 1654 1587 1663 1677 1618 1242 1138 1027 915 786 823 710 903 1052 823 866 993 288 555 450 431 614 286 105 210 227 74 4 11 1
0 2 5 0 0 0 0 0 0 0 2 45 0 0 0 6 60 17 37 34 48 0 0 168 130 340 143 428 299 271 186 189 358 429 335 420 734 1133 1228 1280 1229 1287 1244 1343 935 885 880 578 871 1259 1454 1678 1825 1881 1731 1622 1442 1473 1546 1248 1183 1070 1307 1238 840 858 734 1083 1591 921 845 970 953 550 554 466 692 522 370 387 290 185 89 108 14 8
1 24 12 2 0 0 0 0 0 0 0 6 0 0 0 4 158 112 0 60 1 0 0 0 17 8 10 64 252 212 254 357 303 200 494 396 500 750 786 1020 827 846 926 852 871 806 761 891 826 1203 1262 1499 1746 1759 1860 1294 1152 1049 1657 944 1047 1200 1211 1217 982 914 1105 1339 1280 1182 934 987 1162 1232 864 751 680 526 401 364 336 350 185 29 29 26
0 0 2 17 1 5 0 0 0 0 0 0 19 11 0 91 0 2 0 5 0 2 23 0 0 28 27 138 35 278 288 500 389 325 416 391 433 482 451 468 561 711 996 910 857 844 761 677 864 1019 1428 1180 1501 1462 1289 1147 1006 990 1080 751 798 834 1262 977 797 737 1023 1258 1317 1258 1150 1091 1113 1164 996 834 637 340 202 229 475 353 202 121 51 60
0 1 9 0 0 3 0 0 2 0 0 0 0 0 0 4 0 5 0 0 6 12 1 34 0 7 299 270 140 739 388 407 523 544 437 398 464 605 470 524 431 341 538 993 906 843 869 848 834 1077 1150 1136 1276 1238 1239 1375 1193 1051 1046 976 851 830 806 732 744 1060 910 1126 1179 1137 1270 1220 1070 876 825 923 712 481 230 372 474 447 279 195 110 229
15 1 12 5 8 0 198 0 0 0 15 2 0 2 26 17 12 0 165 0 3 38 4 15 3 222 347 470 216 174 530 417 572 495 384 359 391 524 524 453 376 421 628 695 772 658 712 691 929 1064 1032 969 966 1059 1174 1006 1063 952 862 725 988 757 769 850 610 636 287 686 852 1048 1145 1239 1186 946 531 410 474 507 501 445 328 331 323 104 196 271
13 0 4 12 0 0 0 0 0 0 0 2 0 0 9 57 24 4 11 0 7 0 21 17 64 134 580 588 524 358 492 608 566 298 84 120 233 342 387 491 536 678 606 546 720 536 676 819 842 748 824 712 656 765 749 757 759 1018 987 809 1017 1028 819 931 850 687 470 65 715 882 1180 1248 1227 1218 707 278 245 248 242 203 138 311 228 162 245 139
273 6 1 0 0 71 19 2 3 0 1 4 7 22 0 3 1 74 19 55 54 28 56 9 13 250 259 573 603 536 411 396 358 473 369 478 337 235 187 250 294 358 362 546 609 469 342 392 546 649 783 711 576 485 482 567 692 924 973 898 890 895 819 930 829 747 636 301 863 1052 1133 1248 1170 957 1256 472 394 246 56 122 164 288 320 166 283 232
108 0 10 2 0 15 2 2 0 0 0 0 0 0 0 3 18 36 75 252 84 13 0 21 4 192 452 407 574 561 317 258 40 102 576 660 574 391 394 333 305 253 474 429 574 588 404 262 190 463 470 487 502 621 508 534 512 587 705 826 844 931 796 928 872 959 838 698 673 873 873 778 1304 1037 762 1363 376 328 152 162 176 274 526 102 201 171
1 0 0 7 86 21 3 4 2 0 0 0 0 6 20 1 45 134 59 137 2 1 28 0 83 45 846 578 340 580 475 460 165 92 508 663 696 361 426 403 378 535 431 266 370 410 347 186 136 138 398 433 451 508 681 624 592 693 737 742 794 751 629 598 575 701 932 826 992 1200 1318 898 726 575 653 734 532 411 276 281 189 163 306 458 480 199
0 18 0 1 16 8 22 8 31 4 0 5 6 3 23 6 276 370 2 53 0 31 43 140 9 435 476 592 525 288 314 206 187 339 406 629 543 507 407 287 432 482 511 414 410 352 288 156 92 72 111 105 330 496 652 841 785 751 768 917 928 841 806 738 723 716 813 972 1140 996 816 684 563 547 463 537 362 451 463 431 394 369 312 302 292 335
24 252 0 0 0 1 17 53 26 0 0 0 0 1 62 123 176 0 136 83 2 116 126 187 297 474 489 343 74 227 134 361 208 117 327 362 585 558 512 589 658 772 998 979 888 807 441 378 365 84 106 45 253 407 660 517 480 756 1013 990 917 898 808 794 682 525 648 893 853 679 623 552 491 357 236 400 309 495 1030 744 504 503 402 248 186 253
2 0 14 25 16 6 6 4 5 0 2 0 0 10 30 56 343 312 64 23 15 158 11 219 248 501 368 258 131 250 171 81 226 118 252 321 244 18 213 615 659 695 734 740 766 926 843 637 446 627 686 441 477 440 488 551 543 806 822 1014 1048 1036 871 673 655 590 708 728 857 765 677 571 355 494 329 604 440 394 715 635 859 769 528 698 755 569
161 8 28 67 4 26 2 0 0 2 3 0 0 0 1 16 102 262 478 573 87 5 4 566 472 381 405 454 341 273 40 70 184 137 146 106 127 204 332 348 348 397 407 470 539 614 689 712 796 993 887 658 874 790 684 552 716 766 812 838 978 768 810 713 669 689 625 815 792 646 577 613 444 392 330 550 624 524 536 890 757 411 549 525 446 426
24 21 228 33 27 4 0 0 0 0 0 0 0 0 1 0 2 48 159 344 711 743 643 551 458 355 222 110 342 234 252 236 77 196 38 118 53 49 138 75 143 101 249 91 188 403 397 398 435 620 598 597 312 354 410 470 551 617 696 592 642 697 712 617 631 533 682 861 825 564 478 495 362 542 741 729 769 728 543 519 612 618 430 404 340 210
136 406 248 528 64 54 6 0 0 0 0 0 0 0 0 0 78 55 56 75 271 426 278 380 276 40 78 85 215 140 0 0 0 0 0 0 14 6 53 81 103 18 72 195 26 18 301 322 190 108 408 464 395 306 215 125 322 340 528 405 461 606 546 524 448 520 640 685 791 705 640 461 506 522 556 581 479 496 509 626 490 426 506 378 406 444
276 124 181 32 10 17 45 40 0 0 0 0 1 0 0 0 0 0 0 35 102 153 170 106 59 66 85 67 2 0 95 0 91 177 19 40 7 95 55 17 53 78 25 76 25 5 53 34 102 111 156 192 270 303 322 347 280 492 524 509 520 692 641 814 693 408 553 677 623 625 581 531 484 456 448 338 358 351 339 388 572 608 576 577 514 633
181 40 10 23 32 2 92 24 21 5 9 0 0 0 3 0 0 0 0 0 2 8 23 31 9 13 5 0 0 1 8 53 173 51 65 96 101 51 72 60 39 0 0 11 0 0 0 0 0 0 2 6 25 49 117 189 275 174 122 606 461 615 706 770 628 625 553 464 408 375 417 468 517 526 530 555 507 531 464 402 507 614 588 531 769 630
76 14 17 63 11 6 143 26 68 10 8 17 38 71 46 0 0 0 0 0 0 0 1 0 5 8 0 0 0 0 0 57 92 109 132 102 107 59 24 108 72 10 0 0 0 4 30 8 8 3 0 0 4 12 0 0 0 0 54 15 352 462 491 591 589 632 593 509 400 421 499 268 399 496 539 490 567 683 539 525 574 688 578 559 599 636
19 26 70 24 24 14 103 63 36 15 4 2 6 0 1 0 0 0 0 0 3 2 3 0 0 0 0 0 0 0 0 0 50 100 136 12 49 57 51 64 35 48 34 31 14 4 0 2 60 6 0 0 0 0 0 0 0 3 0 0 0 29 352 7 39 384 540 493 412 231 342 434 396 466 492 466 523 511 542 517 488 638 656 608 651 587
60 39 62 79 27 6 41 74 20 2 7 11 6 1 0 0 0 0 0 0 1 3 6 0 0 0 0 0 0 0 0 0 1 22 11 4 3 24 22 59 21 35 36 15 3 4 0 2 23 19 8 1 0 0 0 0 0 0 0 1 0 0 0 0 0 0 0 0 3 12 74 162 261 358 492 456 414 536 413 471 574 670 779 837 709 748
66 34 54 69 38 46 30 44 22 32 2 3 0 0 3 0 0 0 0 0 0 0 0 0 0 0 0 0 0 0 0 0 0 0 0 0 0 0 4 18 0 13 3 21 0 1 0 2 5 5 7 10 8 5 10 9 4 2 2 7 11 4 0 0 0 0 0 0 0 0 1 3 4 49 112 156 328 534 544 673 744 599 528 721 686 742
47 103 67 49 51 15 37 11 20 15 24 3 0 0 0 0 0 0 0 0 0 0 0 0 0 0 0 0 0 0 0 0 0 0 0 0 0 0 0 0 0 0 0 1 8 0 0 0 0 0 0 0 8 10 10 9 9 5 1 0 0 0 0 0 0 0 0 0 0 0 0 0 0 6 15 24 57 111 316 421 482 420 363 462 354 356
63 84 68 49 82 4 6 7 10 43 1 0 0 0 0 0 0 0 0 1 2 0 0 0 0 0 0 0 0 0 0 0 0 0 0 0 0 0 0 0 0 0 1 0 0 0 0 0 0 0 0 0 0 2 3 0 9 3 1 4 1 0 0 0 0 0 0 0 0 0 0 0 0 0 7 6 85 212 134 36 23 127 203 123 41 48
22 13 7 14 2 11 19 3 6 12 3 1 0 0 0 0 0 0 4 5 2 0 0 0 0 0 0 0 0 0 1 0 0 0 0 0 0 0 0 0 0 0 0 0 0 0 0 0 0 0 0 0 0 0 0 0 0 0 0 0 0 0 0 0 0 0 0 0 0 0 0 0 0 0 0 14 69 36 23 26 12 44 50 40 8 5
2 10 16 12 26 54 0 0 0 1 0 0 0 0 0 0 0 0 1 0 0 1 3 2 1 0 0 0 0 0 0 0 0 0 0 0 0 0 0 0 0 0 0 0 0 0 0 0 0 0 0 0 0 0 0 0 0 0 0 0 0 0 0 0 0 0 0 0 0 0 0 0 0 9 33 7 16 14 20 7 0 4 18 75 28 175
0 0 0 0 0 5 19 13 11 3 0 0 0 0 0 0 0 0 0 0 0 0 4 1 0 0 0 0 0 0 0 0 0 0 0 0 0 0 0 0 0 0 0 0 0 0 0 0 0 0 0 0 0 0 0 0 0 3 7 6 5 7 8 7 8 6 3 4 7 11 14 12 10 8 8 4 27 193 111 110 24 9 137 42 37 58
0 0 3 0 0 0 0 4 0 2 0 0 0 0 0 0 0 0 1 0 0 0 0 0 0 0 0 0 0 0 0 0 0 0 0 0 0 0 0 0 0 0 0 0 0 0 0 0 0 0 0 0 0 0 0 0 2 3 3 5 8 5 10 8 2 18 22 7 0 0 1 9 11 7 7 8 11 44 60 107 146 153 110 125 75 54
2 0 0 8 0 0 0 2 3 0 0 0 0 0 1 0 2 2 4 0 0 0 0 0 0 0 4 3 3 2 0 0 0 0 0 0 0 0 0 0 0 0 0 0 0 0 0 0 0 0 0 0 0 0 0 0 2 7 10 16 8 15 20 27 19 10 3 1 4 6 6 8 11 15 15 9 9 10 39 94 112 121 134 124 106 56
0 0 0 3 0 0 3 1 0 0 0 0 0 0 2 5 0 2 4 4 2 3 4 3 2 2 0 0 0 0 0 0 0 0 0 0 0 0 0 0 0 0 0 0 0 0 0 0 0 0 0 0 0 0 0 0 0 0 0 1 1 1 2 3 4 3 2 1 1 2 4 5 10 13 13 8 1 1 6 36 156 152 118 108 106 55
0 0 0 0 0 0 2 3 1 0 0 0 0 0 1 4 0 0 0 0 0 1 1 4 3 1 0 0 1 0 0 0 0 0 0 0 0 0 0 0 0 0 0 0 0 0 0 0 0 0 0 0 0 0 0 0 0 0 0 0 0 0 0 0 0 0 0 0 0 0 0 0 0 0 0 0 0 0 0 0 28 48 60 74 20 5
1 0 3 1 0 1 10 3 2 1 0 0 0 0 0 0 0 0 0 0 0 0 0 0 0 0 0 0 1 1 0 0 0 0 0 0 0 0 0 0 0 0 0 0 0 0 0 0 0 0 0 0 0 0 0 0 0 0 0 0 0 0 0 0 0 0 0 0 0 0 0 0 0 0 0 0 0 0 0 0 0 29 58 61 11 10
0 0 1 0 0 0 0 2 1 0 2 0 0 1 0 0 0 0 0 0 0 0 0 0 0 3 2 0 0 0 0 0 0 0 0 0 0 0 0 0 0 0 0 0 0 0 0 0 0 0 0 0 0 0 0 0 0 0 0 0 0 0 0 0 0 0 0 0 0 0 0 0 0 0 0 0 0 0 0 0 0 4 14 9 5 115
0 0 1 0 0 0 1 0 1 1 1 3 2 1 0 3 0 0 0 0 2 0 0 0 0 0 0 0 0 0 0 0 0 0 0 0 0 0 0 0 0 0 0 0 0 0 0 0 0 0 0 0 0 0 0 0 0 0 0 0 0 0 0 0 0 0 0 0 0 0 0 0 0 0 0 0 0 0 0 0 0 0 0 10 124 12
2 0 1 0 0 0 0 2 0 1 1 2 1 2 1 2 0 0 0 0 1 0 1 2 3 0 0 0 0 0 0 0 0 0 0 0 0 0 0 0 0 0 0 0 0 0 0 0 0 0 0 0 0 0 0 0 0 0 0 0 0 0 0 0 0 0 0 0 0 0 0 0 0 0 0 0 0 0 0 0 0 0 0 43 0 72
2 0 1 2 0 2 0 0 0 0 0 0 1 1 0 2 1 2 1 3 4 2 0 0 0 0 0 0 0 0 0 0 0 0 0 0 0 0 0 0 0 0 0 0 0 0 0 0 0 0 0 0 0 0 0 1 0 0 0 0 0 0 0 0 0 0 0 0 0 0 0 0 0 0 0 0 0 0 0 0 0 0 0 0 0 0
Wind_Speed
nan nan nan nan nan nan nan nan nan nan nan nan nan nan nan nan nan nan nan nan nan nan nan nan nan nan nan nan nan nan nan nan nan nan nan nan nan 18 20 18 17 15 15 23 38 46 45 45 39 37 34 35 34 34 32 30 28 22 23 26 26 23 23 20 19 17 19 18 15 15 19 20 21 21 19 20 19 17 16 16 18 17 17 17 18 19
nan nan nan nan nan nan nan nan nan nan nan nan nan nan nan nan nan nan nan nan nan nan nan nan nan nan nan nan nan nan nan nan nan nan nan nan nan 17 22 18 16 18 27 48 46 46 42 38 38 32 33 31 33 30 28 30 29 26 27 26 25 23 21 21 20 19 19 17 17 19 18 19 20 18 18 19 17 16 16 18 17 18 19 20 21 19
nan nan nan nan nan nan nan nan nan nan nan nan nan nan nan nan nan nan nan nan nan nan nan nan nan nan nan nan nan nan nan nan nan nan nan nan nan 16 19 17 18 26 46 nan 46 36 38 39 37 33 31 31 31 29 26 28 32 31 28 26 24 22 20 21 21 21 20 16 15 16 19 14 16 17 16 16 16 17 18 18 18 17 18 20 20 20
nan nan nan nan nan nan nan nan nan nan nan nan nan nan nan nan nan nan nan nan nan nan nan nan nan nan nan nan nan nan nan nan nan nan nan nan 20 15 17 21 23 45 48 45 37 38 35 36 36 34 33 35 33 30 28 27 31 29 27 26 24 21 19 19 18 19 19 16 11 18 21 19 19 17 16 16 16 16 16 18 18 16 15 17 19 nan
nan nan nan nan nan nan nan nan nan nan nan nan nan nan nan nan nan nan nan nan nan nan nan nan nan nan nan nan nan nan nan nan nan nan nan nan 21 19 23 38 51 50 46 38 36 29 38 37 35 35 33 33 33 30 28 27 28 28 28 25 24 21 18 15 17 17 19 15 18 26 25 19 18 16 15 nan 13 15 nan 16 16 17 19 nan nan nan
nan nan nan nan nan nan nan nan nan nan nan nan nan nan nan nan nan nan nan nan nan nan nan nan nan nan nan nan nan nan nan nan nan nan nan nan 23 21 35 55 47 45 41 34 27 35 38 38 34 32 31 33 31 32 30 28 26 27 28 26 22 20 18 17 16 18 19 15 19 24 23 18 17 16 13 14 nan 14 15 nan 16 19 20 nan 19 nan
nan nan nan nan nan nan nan nan nan nan nan nan nan nan nan nan nan nan nan nan nan nan nan nan nan nan nan nan nan nan nan nan 21 20 nan nan nan 30 39 49 48 41 32 26 29 37 40 38 32 25 24 30 27 25 27 27 26 25 25 23 20 19 19 20 20 22 19 15 19 21 19 17 17 15 16 15 16 18 18 18 21 20 20 21 21 nan
nan nan nan nan nan nan nan nan nan nan nan nan nan nan nan nan nan nan nan nan nan nan nan nan nan nan nan nan nan nan 21 21 nan 21 17 nan nan 36 52 51 46 32 24 31 24 33 38 35 32 25 24 26 24 24 23 24 22 23 22 20 20 19 20 22 23 23 20 19 22 21 17 16 16 20 19 18 19 18 19 20 18 18 19 nan nan nan
nan nan nan nan nan nan nan nan nan nan nan nan nan nan nan nan nan nan nan nan nan nan nan nan nan nan nan nan nan nan nan nan 22 22 19 20 38 59 55 51 37 25 19 20 22 34 34 32 30 25 23 24 25 23 21 19 18 18 17 16 19 22 22 22 22 21 20 21 22 22 17 17 22 22 20 19 18 18 18 18 18 18 19 21 nan nan
nan nan nan nan nan nan nan nan nan nan nan nan nan nan nan nan nan nan nan nan nan nan nan nan nan nan nan nan nan nan nan nan nan nan 22 19 48 50 50 36 24 20 21 19 23 34 34 29 27 24 24 22 19 19 20 17 14 15 13 14 17 19 18 17 18 22 25 26 26 24 19 20 22 20 19 17 17 18 19 22 nan 21 20 nan nan nan
nan nan nan nan nan nan nan nan nan nan nan nan nan nan nan nan nan nan nan nan nan nan nan nan nan nan nan nan nan nan nan 21 nan nan 28 20 37 45 40 30 22 22 20 22 28 33 36 31 27 23 24 19 15 15 19 18 15 12 11 12 17 18 18 18 19 22 24 22 25 25 20 20 21 20 20 21 20 21 22 23 22 22 21 nan nan nan
nan nan nan nan nan nan nan nan nan nan nan nan nan nan nan nan nan nan nan nan nan nan nan nan nan nan nan nan nan 26 nan nan 29 33 24 nan 41 39 34 25 25 26 22 26 28 33 39 35 29 23 22 18 15 15 17 17 16 13 15 16 17 17 20 20 20 22 21 21 24 21 15 20 21 21 22 22 23 23 23 22 24 24 nan nan nan nan
nan nan nan nan nan nan nan nan nan nan nan nan nan nan nan nan nan nan nan nan nan nan nan nan nan nan nan 25 33 34 32 nan 30 28 26 21 30 37 34 27 25 22 23 26 28 32 35 35 31 24 19 17 18 15 18 19 17 16 18 19 17 18 21 21 20 20 20 19 18 15 16 21 20 21 21 21 23 23 23 24 nan nan nan nan nan nan
nan nan nan nan nan nan nan nan nan nan nan nan nan nan nan nan nan nan nan nan nan nan nan nan nan nan nan 27 34 32 28 34 nan 30 19 19 24 31 33 25 23 21 21 25 27 30 31 32 28 22 20 17 18 17 18 19 18 18 19 21 20 18 21 22 20 19 20 18 14 13 20 22 20 20 19 19 20 22 24 25 25 nan nan nan nan nan
nan nan nan nan nan nan nan nan nan nan nan nan nan nan nan nan nan nan nan nan nan nan nan nan nan nan nan 27 34 33 35 36 40 nan 36 31 32 34 31 26 25 23 21 24 28 28 29 30 27 21 19 18 18 20 20 21 22 20 21 23 24 22 22 22 21 20 21 19 13 14 22 22 20 20 18 18 20 22 26 nan 27 nan nan nan nan nan
nan nan nan nan nan nan nan nan nan nan nan nan nan nan nan nan nan nan 17 17 nan nan nan nan nan 25 28 nan 35 34 34 38 40 43 39 37 35 34 31 29 26 25 25 27 26 26 29 26 19 19 17 17 18 21 21 23 22 21 23 25 28 27 23 22 22 23 23 21 15 20 24 22 23 22 20 20 21 23 25 27 29 30 nan nan nan nan
nan nan nan nan nan nan nan nan nan nan nan nan nan nan nan nan nan nan nan nan nan nan nan 24 21 27 28 31 28 28 32 38 42 45 42 40 38 35 31 28 27 26 26 25 25 25 28 25 18 13 17 18 18 19 22 24 25 24 24 28 28 28 27 27 25 25 25 22 20 24 25 23 24 24 24 23 22 25 26 26 30 30 nan 26 nan nan
nan nan nan nan nan nan nan nan nan nan nan nan nan nan nan nan 12 15 nan nan nan nan nan nan nan nan nan nan 26 28 33 37 39 38 39 41 39 37 33 30 28 27 22 24 31 30 26 19 10 8 17 20 21 20 20 23 24 25 24 31 27 31 31 32 30 29 25 24 25 26 27 25 24 24 27 27 27 28 28 27 28 28 26 nan nan nan
nan nan nan nan nan nan nan nan nan nan nan nan nan nan nan nan nan nan nan nan nan nan nan nan nan nan nan 22 nan 32 32 35 36 33 34 37 35 33 29 29 30 31 27 26 25 25 23 19 14 16 22 23 23 23 21 24 25 23 24 30 26 26 29 31 27 27 22 21 27 27 27 27 26 26 28 30 32 32 30 27 27 28 26 24 nan nan
nan nan nan nan nan nan nan nan nan nan nan nan nan nan nan nan nan nan nan nan nan nan nan nan nan nan 31 29 22 32 35 35 34 31 30 31 31 30 29 30 31 31 28 20 21 23 25 21 24 28 29 29 28 27 24 24 25 28 26 27 26 26 29 30 28 27 21 20 27 27 25 26 26 26 29 32 33 33 30 27 28 29 28 26 23 20
nan nan nan nan nan nan 16 nan nan nan nan nan nan nan nan nan nan nan 24 nan nan nan nan nan nan 29 32 29 24 32 39 35 36 34 32 31 29 29 30 30 29 29 26 24 23 28 29 32 33 33 33 32 30 28 26 26 26 26 27 28 28 28 28 30 32 31 24 20 23 24 24 25 25 26 29 33 32 30 29 27 28 28 28 26 24 22
nan nan nan nan nan nan nan nan nan nan nan nan nan nan nan nan nan nan nan nan nan nan nan nan nan 28 33 28 35 39 38 37 36 35 nan 36 35 31 30 30 28 29 27 32 32 32 32 33 34 36 35 32 30 29 29 28 26 27 28 28 28 26 26 28 29 27 26 nan 19 20 22 25 24 27 31 32 28 28 27 28 28 28 27 26 24 23
32 nan nan nan nan nan nan nan nan nan nan nan nan nan nan nan nan nan nan nan nan nan nan nan nan 29 29 31 34 35 34 37 38 37 36 36 37 37 35 34 31 31 33 33 31 32 33 33 33 36 36 33 31 29 29 27 27 26 26 26 25 25 24 23 25 23 22 21 20 18 18 20 23 27 27 28 25 27 nan 28 29 28 28 27 26 24
35 nan nan nan nan nan nan nan nan nan nan nan nan nan nan nan nan nan nan 28 nan nan nan nan nan 33 35 33 35 38 41 41 nan 37 37 35 33 35 33 31 31 31 32 32 33 32 32 32 31 36 34 32 29 26 25 25 25 23 21 20 20 19 19 18 17 17 19 20 20 20 19 17 20 24 22 23 26 27 28 29 29 29 29 27 27 26
nan nan nan nan nan nan nan nan nan nan nan nan nan nan nan nan nan 24 nan 31 nan nan nan nan nan nan 32 33 35 38 41 42 37 nan 33 32 32 32 33 32 31 30 30 32 32 32 32 33 31 31 32 29 26 25 23 23 22 19 17 16 13 13 13 12 13 13 16 17 17 17 18 21 21 23 24 29 29 26 27 28 28 27 28 27 28 28
nan nan nan nan nan nan nan nan nan nan nan nan nan nan nan nan 13 22 nan nan nan nan nan 23 nan 24 30 36 45 43 43 40 33 27 28 27 29 28 34 33 31 29 30 31 31 29 29 29 nan nan 27 27 26 25 23 22 20 18 16 14 11 9 9 10 12 14 14 12 12 13 16 19 18 22 30 30 21 15 20 24 26 27 28 28 29 29
nan 29 nan nan nan nan nan nan nan nan nan nan nan nan nan 53 36 nan 28 nan nan 35 31 35 29 28 34 39 nan 42 37 38 32 24 25 21 25 28 34 34 32 31 31 31 31 29 28 27 28 nan 25 nan 26 24 23 22 20 17 16 14 10 9 9 12 17 18 11 9 10 13 16 18 17 22 28 21 14 13 19 22 24 28 27 27 29 28
nan nan nan nan nan nan nan nan nan nan nan nan nan nan nan nan 51 34 nan nan nan 31 nan 31 36 41 42 42 39 40 39 nan 32 32 33 32 35 nan 32 29 29 29 29 29 30 30 30 29 26 25 26 26 26 23 22 20 17 14 13 12 12 12 13 15 16 10 8 9 11 16 17 18 20 20 19 19 18 21 21 23 29 31 31 29 29 30
20 nan nan nan nan nan nan nan nan nan nan nan nan nan nan nan 51 52 48 44 nan nan nan 34 39 40 38 40 39 37 nan nan 38 36 33 35 31 27 23 22 25 29 29 30 30 31 30 30 28 25 24 26 25 25 22 22 19 17 15 15 14 14 15 16 14 13 11 11 11 12 13 17 17 14 16 18 18 21 21 23 26 27 28 30 30 31
nan nan 26 nan nan nan nan nan nan nan nan nan nan nan nan nan nan nan 46 48 49 49 47 43 45 43 38 41 45 41 38 41 nan 36 nan 33 nan nan 25 nan 23 26 27 nan 30 29 29 28 28 27 26 24 25 25 27 24 23 21 21 20 18 18 19 17 17 17 16 11 15 14 14 19 20 16 18 18 21 24 24 24 22 23 26 28 29 31
18 26 30 27 nan nan nan nan nan nan nan nan nan nan nan nan nan nan nan nan 39 45 48 49 48 nan nan nan 48 48 nan nan nan nan nan nan nan nan nan nan 24 nan nan 30 nan nan 28 28 29 27 28 29 29 25 26 26 26 25 24 22 22 20 19 21 21 20 19 21 20 19 21 23 22 26 28 26 26 27 24 25 24 24 26 26 28 30
28 28 25 nan nan nan nan nan nan nan nan nan nan nan nan nan nan nan nan nan 42 36 41 42 nan nan nan nan nan nan nan nan nan 44 nan nan nan nan nan nan nan nan nan nan nan nan nan nan 34 32 34 30 31 33 31 29 28 26 25 24 24 24 25 24 24 25 26 26 26 25 24 23 24 29 29 28 28 27 26 30 30 30 29 28 29 29
23 nan nan nan nan nan nan nan nan nan nan nan nan nan nan nan nan nan nan nan nan nan nan nan nan nan nan nan nan nan nan nan 48 nan nan nan 46 nan nan nan nan nan nan nan nan nan nan nan nan nan nan nan nan nan 30 27 29 27 24 26 26 30 30 28 28 30 31 30 29 29 28 28 29 31 30 32 33 33 34 31 32 33 32 31 31 32
nan nan nan nan nan nan 28 nan nan nan nan nan nan nan nan nan nan nan nan nan nan nan nan nan nan nan nan nan nan nan nan nan nan 46 42 39 40 nan nan 41 nan nan nan nan nan nan nan nan nan nan nan nan nan nan nan nan nan nan nan nan 33 34 32 32 32 31 32 31 30 29 28 30 30 32 32 33 33 34 35 35 34 35 35 35 35 35
nan nan nan nan nan nan 25 nan nan nan nan nan nan nan nan nan nan nan nan nan nan nan nan nan nan nan nan nan nan nan nan nan nan 46 46 nan nan nan nan nan nan nan nan nan nan nan nan nan nan nan nan nan nan nan nan nan nan nan nan nan nan nan 33 nan nan 33 34 35 35 34 32 34 33 34 34 34 35 35 37 37 36 36 37 38 38 39
nan nan nan nan nan nan nan nan nan nan nan nan nan nan nan nan nan nan nan nan nan nan nan nan nan nan nan nan nan nan nan nan nan nan nan nan nan nan nan nan nan nan nan nan nan nan nan nan nan nan nan nan nan nan nan nan nan nan nan nan nan nan nan nan nan nan nan nan nan nan nan 41 40 41 41 40 39 41 42 41 40 40 40 41 41 42
nan nan nan nan nan nan nan nan nan nan nan nan nan nan nan nan nan nan nan nan nan nan nan nan nan nan nan nan nan nan nan nan nan nan nan nan nan nan nan nan nan nan nan nan nan nan nan nan nan nan nan nan nan nan nan nan nan nan nan nan nan nan nan nan nan nan nan nan nan nan nan nan nan nan 46 50 50 49 46 44 44 44 44 45 44 44
nan 34 nan nan nan nan nan nan nan nan nan nan nan nan nan nan nan nan nan nan nan nan nan nan nan nan nan nan nan nan nan nan nan nan nan nan nan nan nan nan nan nan nan nan nan nan nan nan nan nan nan nan nan nan nan nan nan nan nan nan nan nan nan nan nan nan nan nan nan nan nan nan nan nan nan nan nan 50 48 46 44 45 44 45 45 45
nan nan nan nan nan nan nan nan nan nan nan nan nan nan nan nan nan nan nan nan nan nan nan nan nan nan nan nan nan nan nan nan nan nan nan nan nan nan nan nan nan nan nan nan nan nan nan nan nan nan nan nan nan nan nan nan nan nan nan nan nan nan nan nan nan nan nan nan nan nan nan nan nan nan nan nan nan 42 41 nan nan 39 39 41 nan nan
nan nan nan nan nan nan nan nan nan nan nan nan nan nan nan nan nan nan nan nan nan nan nan nan nan nan nan nan nan nan nan nan nan nan nan nan nan nan nan nan nan nan nan nan nan nan nan nan nan nan nan nan nan nan nan nan nan nan nan nan nan nan nan nan nan nan nan nan nan nan nan nan nan nan nan nan nan nan nan nan nan nan nan nan nan nan
nan nan nan nan nan nan nan nan nan nan nan nan nan nan nan nan nan nan nan nan nan nan nan nan nan nan nan nan nan nan nan nan nan nan nan nan nan nan nan nan nan nan nan nan nan nan nan nan nan nan nan nan nan nan nan nan nan nan nan nan nan nan nan nan nan nan nan nan nan nan nan nan nan nan nan nan nan nan nan nan nan nan nan nan nan 48
nan nan nan nan nan nan nan nan nan nan nan nan nan nan nan nan nan nan nan nan nan nan nan nan nan nan nan nan nan nan nan nan nan nan nan nan nan nan nan nan nan nan nan nan nan nan nan nan nan nan nan nan nan nan nan nan nan nan nan nan nan nan nan nan nan nan nan nan nan nan nan nan nan nan nan nan nan 52 53 54 nan nan 51 nan nan nan
nan nan nan nan nan nan nan nan nan nan nan nan nan nan nan nan nan nan nan nan nan nan nan nan nan nan nan nan nan nan nan nan nan nan nan nan nan nan nan nan nan nan nan nan nan nan nan nan nan nan nan nan nan nan nan nan nan nan nan nan nan nan nan nan nan nan nan nan nan nan nan nan nan nan nan nan nan nan nan 54 55 55 54 53 nan nan
nan nan nan nan nan nan nan nan nan nan nan nan nan nan nan nan nan nan nan nan nan nan nan nan nan nan nan nan nan nan nan nan nan nan nan nan nan nan nan nan nan nan nan nan nan nan nan nan nan nan nan nan nan nan nan nan nan nan nan nan nan nan nan nan nan nan nan nan nan nan nan nan nan nan nan nan nan nan nan nan 55 54 55 55 53 nan
nan nan nan nan nan nan nan nan nan nan nan nan nan nan nan nan nan nan nan nan nan nan nan nan nan nan nan nan nan nan nan nan nan nan nan nan nan nan nan nan nan nan nan nan nan nan nan nan nan nan nan nan nan nan nan nan nan nan nan nan nan nan nan nan nan nan nan nan nan nan nan nan nan nan nan nan nan nan nan nan 55 56 57 56 55 nan
nan nan nan nan nan nan nan nan nan nan nan nan nan nan nan nan nan nan nan nan nan nan nan nan nan nan nan nan nan nan nan nan nan nan nan nan nan nan nan nan nan nan nan nan nan nan nan nan nan nan nan nan nan nan nan nan nan nan nan nan nan nan nan nan nan nan nan nan nan nan nan nan nan nan nan nan nan nan nan nan nan nan nan nan nan nan
nan nan nan nan nan nan nan nan nan nan nan nan nan nan nan nan nan nan nan nan nan nan nan nan nan nan nan nan nan nan nan nan nan nan nan nan nan nan nan nan nan nan nan nan nan nan nan nan nan nan nan nan nan nan nan nan nan nan nan nan nan nan nan nan nan nan nan nan nan nan nan nan nan nan nan nan nan nan nan nan nan nan nan nan nan nan
nan nan nan nan nan nan nan nan nan nan nan nan nan nan nan nan nan nan nan nan nan nan nan nan nan nan nan nan nan nan nan nan nan nan nan nan nan nan nan nan nan nan nan nan nan nan nan nan nan nan nan nan nan nan nan nan nan nan nan nan nan nan nan nan nan nan nan nan nan nan nan nan nan nan nan nan nan nan nan nan nan nan nan nan nan 54
nan nan nan nan nan nan nan nan nan nan nan nan nan nan nan nan nan nan nan nan nan nan nan nan nan nan nan nan nan nan nan nan nan nan nan nan nan nan nan nan nan nan nan nan nan nan nan nan nan nan nan nan nan nan nan nan nan nan nan nan nan nan nan nan nan nan nan nan nan nan nan nan nan nan nan nan nan nan nan nan nan nan nan nan 57 nan
nan nan nan nan nan nan nan nan nan nan nan nan nan nan nan nan nan nan nan nan nan nan nan nan nan nan nan nan nan nan nan nan nan nan nan nan nan nan nan nan nan nan nan nan nan nan nan nan nan nan nan nan nan nan nan nan nan nan nan nan nan nan nan nan nan nan nan nan nan nan nan nan nan nan nan nan nan nan nan nan nan nan nan nan nan nan
nan nan nan nan nan nan nan nan nan nan nan nan nan nan nan nan nan nan nan nan nan nan nan nan nan nan nan nan nan nan nan nan nan nan nan nan nan nan nan nan nan nan nan nan nan nan nan nan nan nan nan nan nan nan nan nan nan nan nan nan nan nan nan nan nan nan nan nan nan nan nan nan nan nan nan nan nan nan nan nan nan nan nan nan nan nan
Wind_Direction
nan nan nan nan nan nan nan nan nan nan nan nan nan nan nan nan nan nan nan nan nan nan nan nan nan nan nan nan nan nan nan nan nan nan nan nan nan 278 279 276 276 280 282 274 248 249 251 244 254 261 269 272 276 278 281 280 281 277 270 268 265 264 270 272 272 268 263 257 255 258 265 267 262 263 259 249 247 252 255 267 275 276 280 279 277 282
nan nan nan nan nan nan nan nan nan nan nan nan nan nan nan nan nan nan nan nan nan nan nan nan nan nan nan nan nan nan nan nan nan nan nan nan nan 276 283 285 285 278 256 243 247 249 253 262 262 267 274 287 285 283 281 279 277 272 264 263 262 262 269 274 266 259 254 252 251 257 261 264 267 267 257 253 252 252 252 252 260 276 284 288 292 295
nan nan nan nan nan nan nan nan nan nan nan nan nan nan nan nan nan nan nan nan nan nan nan nan nan nan nan nan nan nan nan nan nan nan nan nan nan 273 278 282 275 268 254 nan 252 263 261 264 269 265 277 275 275 274 269 270 276 274 272 273 270 269 269 258 249 243 244 246 244 248 256 260 265 249 250 254 253 255 257 259 262 263 272 284 287 292
nan nan nan nan nan nan nan nan nan nan nan nan nan nan nan nan nan nan nan nan nan nan nan nan nan nan nan nan nan nan nan nan nan nan nan nan 268 272 266 264 259 249 253 257 270 269 266 265 272 270 272 273 277 274 272 276 278 272 273 279 282 281 270 260 258 248 241 246 243 249 247 242 245 246 245 246 250 259 265 267 270 276 282 285 287 nan
nan nan nan nan nan nan nan nan nan nan nan nan nan nan nan nan nan nan nan nan nan nan nan nan nan nan nan nan nan nan nan nan nan nan nan nan 272 258 249 239 242 252 254 259 260 261 269 272 275 275 277 286 285 281 276 277 274 275 282 283 284 282 272 266 268 257 249 251 255 248 243 239 239 239 243 nan 257 258 nan 274 275 276 273 nan nan nan
nan nan nan nan nan nan nan nan nan nan nan nan nan nan nan nan nan nan nan nan nan nan nan nan nan nan nan nan nan nan nan nan nan nan nan nan 272 266 257 259 257 250 258 267 278 272 268 268 271 273 285 291 287 281 282 280 283 288 291 291 288 278 272 271 267 251 252 261 255 242 238 234 228 231 232 243 nan 278 273 nan 277 276 278 nan 272 nan
nan nan nan nan nan nan nan nan nan nan nan nan nan nan nan nan nan nan nan nan nan nan nan nan nan nan nan nan nan nan nan nan 267 268 nan nan nan 266 261 254 257 260 254 250 253 261 265 269 271 274 280 290 293 291 295 295 300 303 295 289 284 272 265 264 257 250 248 252 237 231 235 228 229 231 232 245 255 263 264 262 261 263 265 270 270 nan
nan nan nan nan nan nan nan nan nan nan nan nan nan nan nan nan nan nan nan nan nan nan nan nan nan nan nan nan nan nan 275 275 nan 263 251 nan nan 257 253 254 255 254 240 249 256 259 269 271 275 280 272 284 297 304 311 311 308 304 294 284 270 260 257 253 252 250 246 245 235 235 239 230 229 237 246 254 262 259 259 265 269 271 271 nan nan nan
nan nan nan nan nan nan nan nan nan nan nan nan nan nan nan nan nan nan nan nan nan nan nan nan nan nan nan nan nan nan nan nan 276 272 257 245 250 251 253 253 257 257 257 255 259 267 273 278 283 283 279 288 301 302 306 308 313 310 301 286 268 259 257 253 253 253 252 252 248 239 236 234 236 248 252 260 265 265 270 273 272 268 267 265 nan nan
nan nan nan nan nan nan nan nan nan nan nan nan nan nan nan nan nan nan nan nan nan nan nan nan nan nan nan nan nan nan nan nan nan nan 269 250 258 259 258 262 272 269 265 275 265 268 273 276 280 284 284 294 307 304 279 288 310 319 306 305 300 285 278 276 268 261 262 258 244 232 231 243 250 253 258 261 271 279 279 274 nan 270 269 nan nan nan
nan nan nan nan nan nan nan nan nan nan nan nan nan nan nan nan nan nan nan nan nan nan nan nan nan nan nan nan nan nan nan 272 nan nan 260 255 265 267 273 281 283 278 268 264 264 266 271 277 282 280 283 295 302 300 296 286 296 309 288 287 300 297 291 285 276 275 270 267 264 249 227 255 261 262 262 267 277 281 279 282 280 275 271 nan nan nan
nan nan nan nan nan nan nan nan nan nan nan nan nan nan nan nan nan nan nan nan nan nan nan nan nan nan nan nan nan 232 nan nan 252 250 266 nan 266 269 272 277 272 274 272 268 268 268 270 276 284 278 280 298 301 307 311 298 297 297 282 286 294 294 290 288 286 280 271 265 267 260 250 264 268 269 272 279 283 284 284 283 278 272 nan nan nan nan
nan nan nan nan nan nan nan nan nan nan nan nan nan nan nan nan nan nan nan nan nan nan nan nan nan nan nan 226 240 236 231 nan 266 265 261 257 270 273 274 275 273 274 273 272 271 274 270 276 286 286 279 286 290 302 308 312 311 306 298 300 301 301 293 291 295 295 284 271 276 280 271 263 266 272 278 284 286 286 284 280 nan nan nan nan nan nan
nan nan nan nan nan nan nan nan nan nan nan nan nan nan nan nan nan nan nan nan nan nan nan nan nan nan nan 240 244 244 233 235 nan 261 261 260 261 274 275 273 265 260 262 263 267 269 269 270 280 281 283 286 293 298 303 307 311 308 306 306 305 302 293 296 300 300 292 281 278 285 271 258 264 275 276 279 287 287 281 277 280 nan nan nan nan nan
nan nan nan nan nan nan nan nan nan nan nan nan nan nan nan nan nan nan nan nan nan nan nan nan nan nan nan 227 255 249 247 247 253 nan 250 248 243 249 262 265 260 257 258 257 252 253 260 271 272 271 277 284 292 298 299 303 309 308 307 305 303 297 289 295 300 294 289 280 275 281 270 259 263 276 275 278 285 286 280 nan 275 nan nan nan nan nan
nan nan nan nan nan nan nan nan nan nan nan nan nan nan nan nan nan nan 225 208 nan nan nan nan nan 222 239 nan 239 248 247 247 247 252 255 255 250 247 247 248 247 248 253 249 252 255 247 219 252 275 285 286 295 301 301 305 306 308 307 305 296 292 290 291 292 287 286 292 298 291 281 271 269 274 270 277 283 278 278 275 270 271 nan nan nan nan
nan nan nan nan nan nan nan nan nan nan nan nan nan nan nan nan nan nan nan nan nan nan nan 236 226 238 251 246 250 252 250 244 241 245 251 252 255 256 251 244 240 242 253 253 245 246 252 246 202 280 305 301 303 303 307 307 306 310 308 295 286 294 305 303 292 292 298 302 299 296 289 281 276 271 264 274 279 276 276 274 267 265 nan 269 nan nan
nan nan nan nan nan nan nan nan nan nan nan nan nan nan nan nan 236 241 nan nan nan nan nan nan nan nan nan nan 266 263 256 246 246 251 253 255 255 255 255 258 251 239 237 245 237 243 258 252 236 268 298 299 299 300 301 300 295 300 300 287 295 304 308 295 293 295 294 297 293 290 289 284 278 269 266 267 270 267 269 269 263 258 262 nan nan nan
nan nan nan nan nan nan nan nan nan nan nan nan nan nan nan nan nan nan nan nan nan nan nan nan nan nan nan 266 nan 271 265 253 254 257 260 262 262 259 262 266 264 266 260 243 248 264 272 278 301 305 292 290 290 292 296 286 287 288 287 290 298 301 296 292 298 297 292 292 289 280 280 280 275 270 268 267 264 263 268 268 255 253 258 256 nan nan
nan nan nan nan nan nan nan nan nan nan nan nan nan nan nan nan nan nan nan nan nan nan nan nan nan nan 235 240 277 283 276 274 273 268 260 259 259 256 258 260 260 260 260 248 263 277 281 294 306 296 289 283 279 280 284 288 283 284 283 284 286 285 289 296 299 298 304 300 291 279 275 276 274 271 268 268 266 265 269 262 248 250 256 255 251 249
nan nan nan nan nan nan 219 nan nan nan nan nan nan nan nan nan nan nan 235 nan nan nan nan nan nan 237 239 233 262 279 280 286 289 288 285 277 270 265 262 259 259 264 266 274 282 284 289 292 290 290 288 285 281 280 280 286 286 286 287 283 283 290 292 296 303 313 308 305 306 294 285 283 279 275 270 268 267 266 264 253 246 249 253 253 251 247
nan nan nan nan nan nan nan nan nan nan nan nan nan nan nan nan nan nan nan nan nan nan nan nan nan 234 232 237 248 269 281 282 281 285 nan 288 289 290 284 279 276 284 283 278 279 283 286 285 286 288 286 287 288 288 287 287 291 289 289 290 291 293 295 294 297 301 304 nan 314 316 301 288 279 274 269 264 261 261 254 245 244 248 250 250 251 248
221 nan nan nan nan nan nan nan nan nan nan nan nan nan nan nan nan nan nan nan nan nan nan nan nan 244 246 247 254 260 267 273 277 277 280 283 290 291 288 286 285 276 274 273 276 278 280 282 284 284 285 286 288 286 287 291 288 287 289 291 292 293 293 297 303 304 297 297 290 295 297 292 273 266 264 267 262 254 nan 242 244 248 251 251 247 247
223 nan nan nan nan nan nan nan nan nan nan nan nan nan nan nan nan nan nan 240 nan nan nan nan nan 246 244 249 253 252 258 263 nan 276 280 283 281 279 280 276 274 272 273 275 272 272 273 275 274 280 281 283 285 287 287 285 285 287 287 289 292 292 296 301 299 304 302 294 292 288 291 299 278 260 252 256 256 246 243 243 245 248 250 252 249 250
nan nan nan nan nan nan nan nan nan nan nan nan nan nan nan nan nan 233 nan 242 nan nan nan nan nan nan 242 240 250 255 254 251 253 nan 277 278 275 278 278 276 273 270 266 270 271 270 271 273 273 276 280 280 282 284 283 283 282 283 283 281 281 285 295 300 301 301 296 292 289 285 277 274 274 270 254 238 225 237 246 249 255 255 257 253 255 258
nan nan nan nan nan nan nan nan nan nan nan nan nan nan nan nan 211 247 nan nan nan nan nan 234 nan 242 247 246 244 242 247 253 251 247 248 258 268 270 268 265 264 264 260 261 259 261 263 267 nan nan 277 280 280 279 276 273 274 279 274 271 269 275 274 278 281 282 275 278 289 274 273 267 266 260 254 248 246 212 239 253 251 255 256 258 260 262
nan 232 nan nan nan nan nan nan nan nan nan nan nan nan nan 197 186 nan 243 nan nan 235 225 224 236 252 252 251 nan 253 247 260 267 248 248 246 253 254 250 251 254 252 252 251 250 249 251 254 257 nan 271 nan 272 269 268 267 271 267 262 261 261 271 276 257 246 245 228 228 240 251 254 263 263 263 259 259 261 261 238 247 256 261 262 266 269 271
nan nan nan nan nan nan nan nan nan nan nan nan nan nan nan nan 204 204 nan nan nan 245 nan 228 237 245 241 242 248 255 263 nan 250 251 244 242 241 nan 237 239 239 251 249 249 252 252 254 255 258 256 257 264 268 269 265 270 267 262 254 258 264 255 255 257 263 254 236 215 225 235 241 254 251 249 262 262 262 258 256 259 252 250 252 254 259 261
236 nan nan nan nan nan nan nan nan nan nan nan nan nan nan nan 221 218 216 217 nan nan nan 246 255 256 253 250 249 252 nan nan 262 259 257 261 253 252 238 241 254 248 249 254 254 250 253 253 251 255 258 258 258 262 273 273 277 277 287 283 282 285 290 291 287 279 250 234 243 240 253 257 262 266 276 273 264 258 254 252 255 255 259 262 262 262
nan nan 236 nan nan nan nan nan nan nan nan nan nan nan nan nan nan nan 228 224 233 247 250 254 252 253 253 256 253 252 252 255 nan 264 nan 247 nan nan 249 nan 239 246 246 nan 250 252 253 250 255 252 255 256 259 261 264 266 271 277 279 277 276 280 291 288 290 291 295 291 288 290 286 285 286 288 284 275 267 264 263 255 241 254 263 264 265 267
235 242 242 236 nan nan nan nan nan nan nan nan nan nan nan nan nan nan nan nan 232 243 251 257 256 nan nan nan 253 248 nan nan nan nan nan nan nan nan nan nan 236 nan nan 230 nan nan 253 260 261 257 249 247 249 250 262 261 260 261 261 266 273 276 272 283 296 295 296 294 282 276 277 275 279 276 274 269 266 267 272 273 271 268 271 269 269 270
219 246 243 nan nan nan nan nan nan nan nan nan nan nan nan nan nan nan nan nan 245 251 246 250 nan nan nan nan nan nan nan nan nan 245 nan nan nan nan nan nan nan nan nan nan nan nan nan nan 246 254 263 265 262 259 260 262 264 263 266 261 262 256 257 255 256 272 277 274 276 274 269 255 262 269 272 271 269 274 274 270 270 271 271 270 269 267
237 nan nan nan nan nan nan nan nan nan nan nan nan nan nan nan nan nan nan nan nan nan nan nan nan nan nan nan nan nan nan nan 249 nan nan nan 243 nan nan nan nan nan nan nan nan nan nan nan nan nan nan nan nan nan 264 272 274 269 261 268 261 262 260 258 258 259 261 262 266 267 264 262 257 262 264 264 264 262 267 269 269 270 272 271 267 267
nan nan nan nan nan nan 263 nan nan nan nan nan nan nan nan nan nan nan nan nan nan nan nan nan nan nan nan nan nan nan nan nan nan 251 250 250 247 nan nan 242 nan nan nan nan nan nan nan nan nan nan nan nan nan nan nan nan nan nan nan nan 269 269 266 266 266 266 267 268 266 259 253 258 260 261 258 257 261 268 270 269 268 268 271 271 271 271
nan nan nan nan nan nan 233 nan nan nan nan nan nan nan nan nan nan nan nan nan nan nan nan nan nan nan nan nan nan nan nan nan nan 252 249 nan nan nan nan nan nan nan nan nan nan nan nan nan nan nan nan nan nan nan nan nan nan nan nan nan nan nan 268 nan nan 270 271 276 277 274 270 267 263 266 265 263 264 265 267 265 265 266 268 271 273 274
nan nan nan nan nan nan nan nan nan nan nan nan nan nan nan nan nan nan nan nan nan nan nan nan nan nan nan nan nan nan nan nan nan nan nan nan nan nan nan nan nan nan nan nan nan nan nan nan nan nan nan nan nan nan nan nan nan nan nan nan nan nan nan nan nan nan nan nan nan nan nan 273 274 276 278 273 269 267 268 267 268 270 268 268 270 271
nan nan nan nan nan nan nan nan nan nan nan nan nan nan nan nan nan nan nan nan nan nan nan nan nan nan nan nan nan nan nan nan nan nan nan nan nan nan nan nan nan nan nan nan nan nan nan nan nan nan nan nan nan nan nan nan nan nan nan nan nan nan nan nan nan nan nan nan nan nan nan nan nan nan 271 276 277 276 273 271 269 267 270 271 271 272
nan 256 nan nan nan nan nan nan nan nan nan nan nan nan nan nan nan nan nan nan nan nan nan nan nan nan nan nan nan nan nan nan nan nan nan nan nan nan nan nan nan nan nan nan nan nan nan nan nan nan nan nan nan nan nan nan nan nan nan nan nan nan nan nan nan nan nan nan nan nan nan nan nan nan nan nan nan 274 276 276 274 271 270 270 271 272
nan nan nan nan nan nan nan nan nan nan nan nan nan nan nan nan nan nan nan nan nan nan nan nan nan nan nan nan nan nan nan nan nan nan nan nan nan nan nan nan nan nan nan nan nan nan nan nan nan nan nan nan nan nan nan nan nan nan nan nan nan nan nan nan nan nan nan nan nan nan nan nan nan nan nan nan nan 260 265 nan nan 274 278 275 nan nan
nan nan nan nan nan nan nan nan nan nan nan nan nan nan nan nan nan nan nan nan nan nan nan nan nan nan nan nan nan nan nan nan nan nan nan nan nan nan nan nan nan nan nan nan nan nan nan nan nan nan nan nan nan nan nan nan nan nan nan nan nan nan nan nan nan nan nan nan nan nan nan nan nan nan nan nan nan nan nan nan nan nan nan nan nan nan
nan nan nan nan nan nan nan nan nan nan nan nan nan nan nan nan nan nan nan nan nan nan nan nan nan nan nan nan nan nan nan nan nan nan nan nan nan nan nan nan nan nan nan nan nan nan nan nan nan nan nan nan nan nan nan nan nan nan nan nan nan nan nan nan nan nan nan nan nan nan nan nan nan nan nan nan nan nan nan nan nan nan nan nan nan 267
nan nan nan nan nan nan nan nan nan nan nan nan nan nan nan nan nan nan nan nan nan nan nan nan nan nan nan nan nan nan nan nan nan nan nan nan nan nan nan nan nan nan nan nan nan nan nan nan nan nan nan nan nan nan nan nan nan nan nan nan nan nan nan nan nan nan nan nan nan nan nan nan nan nan nan nan nan 267 268 268 nan nan 277 nan nan nan
nan nan nan nan nan nan nan nan nan nan nan nan nan nan nan nan nan nan nan nan nan nan nan nan nan nan nan nan nan nan nan nan nan nan nan nan nan nan nan nan nan nan nan nan nan nan nan nan nan nan nan nan nan nan nan nan nan nan nan nan nan nan nan nan nan nan nan nan nan nan nan nan nan nan nan nan nan nan nan 270 272 273 273 275 nan nan
nan nan nan nan nan nan nan nan nan nan nan nan nan nan nan nan nan nan nan nan nan nan nan nan nan nan nan nan nan nan nan nan nan nan nan nan nan nan nan nan nan nan nan nan nan nan nan nan nan nan nan nan nan nan nan nan nan nan nan nan nan nan nan nan nan nan nan nan nan nan nan nan nan nan nan nan nan nan nan nan 270 271 274 276 275 nan
nan nan nan nan nan nan nan nan nan nan nan nan nan nan nan nan nan nan nan nan nan nan nan nan nan nan nan nan nan nan nan nan nan nan nan nan nan nan nan nan nan nan nan nan nan nan nan nan nan nan nan nan nan nan nan nan nan nan nan nan nan nan nan nan nan nan nan nan nan nan nan nan nan nan nan nan nan nan nan nan 271 272 271 271 273 nan
nan nan nan nan nan nan nan nan nan nan nan nan nan nan nan nan nan nan nan nan nan nan nan nan nan nan nan nan nan nan nan nan nan nan nan nan nan nan nan nan nan nan nan nan nan nan nan nan nan nan nan nan nan nan nan nan nan nan nan nan nan nan nan nan nan nan nan nan nan nan nan nan nan nan nan nan nan nan nan nan nan nan nan nan nan nan
nan nan nan nan nan nan nan nan nan nan nan nan nan nan nan nan nan nan nan nan nan nan nan nan nan nan nan nan nan nan nan nan nan nan nan nan nan nan nan nan nan nan nan nan nan nan nan nan nan nan nan nan nan nan nan nan nan nan nan nan nan nan nan nan nan nan nan nan nan nan nan nan nan nan nan nan nan nan nan nan nan nan nan nan nan nan
nan nan nan nan nan nan nan nan nan nan nan nan nan nan nan nan nan nan nan nan nan nan nan nan nan nan nan nan nan nan nan nan nan nan nan nan nan nan nan nan nan nan nan nan nan nan nan nan nan nan nan nan nan nan nan nan nan nan nan nan nan nan nan nan nan nan nan nan nan nan nan nan nan nan nan nan nan nan nan nan nan nan nan nan nan 271
nan nan nan nan nan nan nan nan nan nan nan nan nan nan nan nan nan nan nan nan nan nan nan nan nan nan nan nan nan nan nan nan nan nan nan nan nan nan nan nan nan nan nan nan nan nan nan nan nan nan nan nan nan nan nan nan nan nan nan nan nan nan nan nan nan nan nan nan nan nan nan nan nan nan nan nan nan nan nan nan nan nan nan nan 268 nan
nan nan nan nan nan nan nan nan nan nan nan nan nan nan nan nan nan nan nan nan nan nan nan nan nan nan nan nan nan nan nan nan nan nan nan nan nan nan nan nan nan nan nan nan nan nan nan nan nan nan nan nan nan nan nan nan nan nan nan nan nan nan nan nan nan nan nan nan nan nan nan nan nan nan nan nan nan nan nan nan nan nan nan nan nan nan
nan nan nan nan nan nan nan nan nan nan nan nan nan nan nan nan nan nan nan nan nan nan nan nan nan nan nan nan nan nan nan nan nan nan nan nan nan nan nan nan nan nan nan nan nan nan nan nan nan nan nan nan nan nan nan nan nan nan nan nan nan nan nan nan nan nan nan nan nan nan nan nan nan nan nan nan nan nan nan nan nan nan nan nan nan nan